Startpagina
METAR-TAF:

METAR-TAF

Vliegvelden :

Schaffen

Diest, België

breedte: 51-00N, lengte: 005-04E, hoogte: 30 m

Actueel weer

Dit bericht is 22 minuten geleden gemaakt, om 23:55 UTC
Wind 5 kt uit het noordnoordwesten
Temperatuur 11°C
Vochtigheid 82%
Druk 1027 hPa
Zicht 10 km of meer

METAR: EBDT 122355Z AUTO 33005KT 9999 NCD 11/08 Q1027 BLU

Tijdstip: 02:17 (00:17 UTC)


TAF: ontbreekt

Waarnemingen en weersverwachtingen van meer dan 4000 vliegvelden (METAR en TAF).

De beschikbare stations zijn de gele en rode punten op de kaart.

Ga met uw muis naar het station om de naam te zien.

Klik dan om waarnemingen en weersverwachtingen te zien.

kaart wijzigen: klik op de groene knoppen met een zwart kruis om in te zoomen, op de groene knop met een streepje om uit te zoomen of op de groene pijlen voor aangrenzende kaarten.


METAR-TAF: